Location: Las Callecitas
(9.8750°N, 67.4611°W)
Time: 22:05:19
(UTC+00:00)

Nadezhda 2 Rocket - Pass Details

Date: 14 April 2024
Orbit: 946 x 1011 km, 83.0° (Epoch: 25 April)

Event Time Altitude Azimuth Distance (km) Brightness Sun altitude
Rises 09:50:42 0° 193° (SSW) 3,636 7.2 -7.9°
Reaches altitude 10° 09:53:16 10° 198° (SSW) 2,682 6.5 -7.3°
Maximum altitude 09:59:13 54° 274° (W) 1,139 4.6 -5.8°
Drops below altitude 10° 10:05:07 10° 351° (N) 2,659 6.8 -4.4°
Sets 10:07:40 0° 355° (N) 3,603 7.6 -3.8°
